Location: Igri�s
(42.2144°N, 0.4320°W)
Time: 18:16:39
(UTC+00:00)

Okean 3 - Pass Details

Date: 13 August 2020
Orbit: 577 x 600 km, 82.5° (Epoch: 18 September)

Event Time Altitude Azimuth Distance (km) Brightness Sun altitude
Rises 21:47:29 0° 356° (N) 2,852 7.8 -25.1°
Reaches altitude 10° 21:49:44 10° 0° (N) 1,947 6.8 -25.3°
Enters shadow 21:53:00 44° 31° (NNE) 830 4.3 -25.7°
